Simultaneous Nadir Overpasses (SNOs) Predictions

Prediction of SNOs between TERRA and METOP-C Satellite Orbit:

Table of predicted SNOs for the next 14.0 days since TLE Epoch: 2/22/2025
Index Date (TERRA) Time (TERRA) Lat,Lon (TERRA) SZA (TERRA ) Date (METOP-C) Time (METOP-C) Lat,Lon (METOP-C) SZA (METOP-C ) Distance(km) Time Diff (sec)
1 02/23/2025 15:48:38 81.10, -31.16 91.30 02/23/2025 15:47:25 80.47, -29.15 90.83 77.94 73
2 02/23/2025 16:24:53 -45.92,-111.91 55.22 02/23/2025 16:24:38 -45.81,-112.40 55.53 39.69 15
3 02/23/2025 17:14:01 45.09, 56.04 125.28 02/23/2025 17:15:07 44.93, 55.25 125.01 64.54 66
4 02/26/2025 05:29:19 -78.83, -74.59 92.59 02/26/2025 05:28:06 -78.30, -72.05 93.07 81.28 73
5 02/26/2025 06:04:31 45.90,-136.86 124.09 02/26/2025 06:04:16 45.83,-137.32 123.80 36.21 15
6 02/26/2025 06:53:35 -45.10, 31.10 55.43 02/26/2025 06:54:38 -44.94, 30.37 55.66 60.35 63
7 02/28/2025 19:09:48 76.32,-109.80 83.95 02/28/2025 19:08:36 75.84,-107.36 83.43 84.50 72
8 02/28/2025 19:44:06 -46.01,-161.84 56.69 02/28/2025 19:43:49 -45.96,-162.25 56.97 32.48 17
9 02/28/2025 20:33:12 45.06, 6.16 123.90 02/28/2025 20:34:15 44.92, 5.47 123.69 56.96 63
10 03/03/2025 08:49:29 -76.00,-135.72 97.33 03/03/2025 08:48:16 -75.55,-133.16 97.83 85.73 73
11 03/03/2025 09:23:42 46.03, 173.21 122.59 03/03/2025 09:23:25 45.96, 172.84 122.35 29.25 17
12 03/03/2025 10:12:44 -45.11, -18.78 56.84 03/03/2025 10:13:46 -45.00, -19.44 57.04 53.19 62
13 03/05/2025 22:29:31 74.52,-164.57 80.34 03/05/2025 22:28:19 74.07,-162.16 79.81 88.17 72
14 03/05/2025 23:03:15 -46.12, 148.25 58.19 03/05/2025 23:02:57 -46.05, 147.93 58.40 25.88 18



Historial Predications of SNOs between TERRA and METOP-C
